Madison, SD

3:40 PM CST on December 12, 2019 (GMT -0600)
Madison Municipal

Weather History for KMDS - October, 2019

Change the Weather History Date:

Wednesday, October 9, 2019

  Actual Average Record
Temperature  
Mean Temperature 59 °F -  
Max Temperature 68 °F 59 °F 73 °F (2011)
Min Temperature 50 °F 37 °F 30 °F (2016)
Degree Days  
Heating Degree Days 6    
Growing Degree Days 9 (Base 50)    
Moisture  
Dew Point 52 °F    
Average Humidity 86    
Maximum Humidity 100    
Minimum Humidity 60    
Precipitation  
Precipitation 0.00 in - - ()
Sea Level Pressure  
Sea Level Pressure 29.77 in    
Wind  
Wind Speed 15 mph ()    
Max Wind Speed 26 mph    
Max Gust Speed 34 mph    
Visibility 9.8 miles    
Events Rain    
Averages and records for this station are not official NWS values.
T = Trace of Precipitation, MM = Missing Value Source: Averaged Metar Reports

Daily Weather History Graph

Daily Weather History Graph

Search for Another Location

Airport or City:

Astronomy

Oct. 09, 2019 Rise Set
Actual Time 7:35 AM CDT 6:55 PM CDT
Civil Twilight 7:06 AM CDT 7:24 PM CDT
Nautical Twilight 6:33 AM CDT 7:57 PM CDT
Astronomical Twilight 5:59 AM CDT 8:30 PM CDT
Moon 5:38 PM CDT (10/9) 3:11 AM CDT (10/9)
Length of Visible Light 12h 17m
Length of Day
11h 19m
Waxing Gibbous, 85% of the Moon is Illuminated
Oct 9
Waxing Gibbous
Oct 13
Full
Oct 21
Last Quarter
Oct 27
New
Nov 4
First Quarter

Hourly Weather History & Observations

Time (CDT) Temp. Dew Point Humidity Pressure Visibility Wind Dir Wind Speed Gust Speed Precip Events Conditions
12:00 AM 55.4 °F 48.2 °F 77% 29.78 in 10.0 mi South 16.1 mph 21.9 mph N/A   Clear
12:15 AM 55.4 °F 48.2 °F 77% 29.78 in 10.0 mi South 16.1 mph 21.9 mph N/A   Clear
12:20 AM 55.4 °F 48.2 °F 77% 29.77 in 10.0 mi South 16.1 mph 23.0 mph N/A   Clear
12:35 AM 55.4 °F 48.2 °F 77% 29.77 in 10.0 mi South 15.0 mph 21.9 mph N/A   Clear
12:55 AM 55.4 °F 48.2 °F 77% 29.76 in 10.0 mi South 15.0 mph - N/A   Clear
1:00 AM 55.4 °F 48.2 °F 77% 29.76 in 10.0 mi South 15.0 mph 20.7 mph N/A   Clear
1:15 AM 55.4 °F 50.0 °F 82% 29.76 in 10.0 mi South 16.1 mph 24.2 mph N/A   Clear
1:20 AM 55.4 °F 50.0 °F 82% 29.76 in 10.0 mi South 15.0 mph 23.0 mph N/A   Clear
1:35 AM 55.4 °F 48.2 °F 77% 29.76 in 10.0 mi South 13.8 mph 19.6 mph N/A   Clear
1:55 AM 55.4 °F 48.2 °F 77% 29.75 in 10.0 mi SSE 15.0 mph - N/A   Clear
2:00 AM 55.4 °F 48.2 °F 77% 29.75 in 10.0 mi South 13.8 mph - N/A   Clear
2:15 AM 55.4 °F 48.2 °F 77% 29.75 in 10.0 mi South 15.0 mph 21.9 mph N/A   Clear
2:20 AM 55.4 °F 50.0 °F 82% 29.75 in 10.0 mi South 15.0 mph 21.9 mph N/A   Clear
2:35 AM 53.6 °F 50.0 °F 88% 29.75 in 10.0 mi South 17.3 mph 21.9 mph N/A   Clear
2:40 AM 53.6 °F 50.0 °F 88% 29.75 in 10.0 mi SSE 17.3 mph 21.9 mph N/A   Clear
2:55 AM 55.4 °F 50.0 °F 82% 29.74 in 10.0 mi South 17.3 mph 23.0 mph N/A   Clear
3:15 AM 53.6 °F 50.0 °F 88% 29.74 in 10.0 mi South 18.4 mph 21.9 mph N/A   Clear
3:20 AM 53.6 °F 50.0 °F 88% 29.74 in 10.0 mi South 17.3 mph 23.0 mph N/A   Clear
3:35 AM 53.6 °F 50.0 °F 88% 29.74 in 10.0 mi South 16.1 mph 21.9 mph N/A   Clear
3:55 AM 53.6 °F 50.0 °F 88% 29.73 in 10.0 mi South 16.1 mph 21.9 mph N/A   Clear
4:00 AM 53.6 °F 50.0 °F 88% 29.73 in 10.0 mi South 15.0 mph 21.9 mph N/A   Clear
4:15 AM 53.6 °F 50.0 °F 88% 29.73 in 10.0 mi South 15.0 mph 24.2 mph N/A   Clear
4:40 AM 53.6 °F 51.8 °F 94% 29.72 in 10.0 mi South 18.4 mph 23.0 mph N/A   Clear
4:55 AM 53.6 °F 51.8 °F 94% 29.73 in 10.0 mi South 16.1 mph 26.5 mph N/A   Clear
5:00 AM 53.6 °F 51.8 °F 94% 29.73 in 10.0 mi South 16.1 mph 26.5 mph N/A   Clear
5:15 AM 53.6 °F 51.8 °F 94% 29.73 in 10.0 mi South 17.3 mph - N/A   Clear
5:20 AM 53.6 °F 53.6 °F 100% 29.73 in 10.0 mi South 17.3 mph - N/A   Clear
5:35 AM 53.6 °F 53.6 °F 100% 29.73 in 10.0 mi South 17.3 mph 23.0 mph N/A   Clear
5:55 AM 53.6 °F 53.6 °F 100% 29.73 in 10.0 mi South 16.1 mph 23.0 mph N/A   Clear
6:15 AM 51.8 °F 51.8 °F 100% 29.73 in 10.0 mi South 16.1 mph 24.2 mph N/A   Clear
6:35 AM 51.8 °F 51.8 °F 100% 29.73 in 10.0 mi South 16.1 mph - N/A   Clear
6:40 AM 51.8 °F 51.8 °F 100% 29.73 in 10.0 mi South 16.1 mph 21.9 mph N/A   Clear
6:55 AM 51.8 °F 51.8 °F 100% 29.73 in 10.0 mi South 17.3 mph 23.0 mph N/A   Clear
7:05 AM 51.8 °F 51.8 °F 100% 29.73 in 10.0 mi South 15.0 mph - N/A   Clear
7:15 AM 51.8 °F 51.8 °F 100% 29.73 in 10.0 mi South 17.3 mph 23.0 mph N/A   Clear
7:35 AM 51.8 °F 51.8 °F 100% 29.73 in 10.0 mi South 15.0 mph - N/A   Clear
7:40 AM 51.8 °F 51.8 °F 100% 29.73 in 10.0 mi South 13.8 mph - N/A   Clear
7:55 AM 51.8 °F 51.8 °F 100% 29.74 in 10.0 mi South 17.3 mph 24.2 mph N/A   Clear
8:00 AM 51.8 °F 51.8 °F 100% 29.73 in 10.0 mi South 18.4 mph 24.2 mph N/A   Clear
8:15 AM 53.6 °F 53.6 °F 100% 29.73 in 10.0 mi South 18.4 mph 25.3 mph N/A   Clear
8:35 AM 53.6 °F 53.6 °F 100% 29.73 in 10.0 mi South 18.4 mph 26.5 mph N/A   Clear
8:40 AM 53.6 °F 53.6 °F 100% 29.74 in 10.0 mi South 17.3 mph 24.2 mph N/A   Clear
8:55 AM 55.4 °F 53.6 °F 94% 29.75 in 10.0 mi South 17.3 mph 24.2 mph N/A   Clear
9:00 AM 55.4 °F 53.6 °F 94% 29.75 in 10.0 mi South 18.4 mph 24.2 mph N/A   Clear
9:20 AM 55.4 °F 53.6 °F 94% 29.75 in 10.0 mi South 18.4 mph 25.3 mph N/A   Clear
9:35 AM 55.4 °F 53.6 °F 94% 29.75 in 10.0 mi South 21.9 mph 29.9 mph N/A   Clear
9:40 AM 57.2 °F 51.8 °F 82% 29.75 in 10.0 mi South 21.9 mph 29.9 mph N/A   Clear
9:55 AM 57.2 °F 51.8 °F 82% 29.75 in 10.0 mi South 21.9 mph 31.1 mph N/A   Clear
10:00 AM 57.2 °F 51.8 °F 82% 29.75 in 10.0 mi South 20.7 mph 31.1 mph N/A   Clear
10:15 AM 59.0 °F 51.8 °F 77% 29.75 in 10.0 mi South 21.9 mph 31.1 mph N/A   Clear
10:20 AM 59.0 °F 51.8 °F 77% 29.75 in 10.0 mi South 21.9 mph 31.1 mph N/A   Clear
10:35 AM 59.0 °F 51.8 °F 77% 29.75 in 10.0 mi South 24.2 mph 31.1 mph N/A   Clear
10:40 AM 59.0 °F 51.8 °F 77% 29.75 in 10.0 mi South 24.2 mph 32.2 mph N/A   Clear
10:55 AM 59.0 °F 50.0 °F 72% 29.76 in 10.0 mi South 24.2 mph 34.5 mph N/A   Clear
11:15 AM 60.8 °F 50.0 °F 68% 29.76 in 10.0 mi South 26.5 mph 33.4 mph N/A   Clear
11:20 AM 60.8 °F 51.8 °F 72% 29.76 in 10.0 mi SSW 21.9 mph 33.4 mph N/A   Clear
11:35 AM 60.8 °F 51.8 °F 72% 29.76 in 10.0 mi South 24.2 mph 31.1 mph N/A   Clear
11:40 AM 62.6 °F 51.8 °F 68% 29.76 in 10.0 mi SSW 23.0 mph 31.1 mph N/A   Clear
11:55 AM 62.6 °F 51.8 °F 68% 29.75 in 10.0 mi South 21.9 mph 29.9 mph N/A   Clear
12:00 PM 62.6 °F 51.8 °F 68% 29.76 in 10.0 mi South 20.7 mph 27.6 mph N/A   Clear
12:15 PM 62.6 °F 51.8 °F 68% 29.75 in 10.0 mi South 26.5 mph - N/A   Clear
12:20 PM 62.6 °F 51.8 °F 68% 29.75 in 10.0 mi SSW 24.2 mph 28.8 mph N/A   Clear
12:35 PM 64.4 °F 51.8 °F 64% 29.76 in 10.0 mi South 19.6 mph 29.9 mph N/A   Clear
12:55 PM 64.4 °F 51.8 °F 64% 29.75 in 10.0 mi SSW 21.9 mph 27.6 mph N/A   Clear
1:15 PM 64.4 °F 53.6 °F 68% 29.75 in 10.0 mi SSW 19.6 mph 26.5 mph N/A   Clear
1:35 PM 64.4 °F 53.6 °F 68% 29.74 in 10.0 mi South 19.6 mph 25.3 mph N/A   Clear
1:55 PM 64.4 °F 53.6 °F 68% 29.74 in 10.0 mi SSW 19.6 mph 26.5 mph N/A   Clear
2:00 PM 64.4 °F 53.6 °F 68% 29.74 in 10.0 mi SSW 17.3 mph 26.5 mph N/A   Clear
2:15 PM 66.2 °F 53.6 °F 64% 29.74 in 10.0 mi South 19.6 mph 24.2 mph N/A   Clear
2:20 PM 66.2 °F 53.6 °F 64% 29.74 in 10.0 mi South 17.3 mph 24.2 mph N/A   Clear
2:35 PM 68.0 °F 53.6 °F 60% 29.74 in 10.0 mi South 17.3 mph 23.0 mph N/A   Clear
2:40 PM 68.0 °F 53.6 °F 60% 29.73 in 10.0 mi SSW 15.0 mph 23.0 mph N/A   Partly Cloudy
2:55 PM 68.0 °F 53.6 °F 60% 29.74 in 10.0 mi South 13.8 mph 20.7 mph N/A   Clear
3:15 PM 66.2 °F 53.6 °F 64% 29.73 in 10.0 mi South 19.6 mph - N/A   Clear
3:35 PM 68.0 °F 55.4 °F 64% 29.73 in 10.0 mi South 18.4 mph 21.9 mph N/A   Clear
3:55 PM 68.0 °F 55.4 °F 64% 29.73 in 10.0 mi South 16.1 mph 23.0 mph N/A   Clear
4:00 PM 68.0 °F 55.4 °F 64% 29.73 in 10.0 mi South 17.3 mph 23.0 mph N/A   Clear
4:15 PM 68.0 °F 55.4 °F 64% 29.74 in 10.0 mi South 13.8 mph 21.9 mph N/A   Clear
4:35 PM 68.0 °F 55.4 °F 64% 29.74 in 10.0 mi South 15.0 mph - N/A   Clear
4:55 PM 66.2 °F 55.4 °F 68% 29.75 in 10.0 mi SW 9.2 mph 21.9 mph N/A   Mostly Cloudy
5:00 PM 66.2 °F 55.4 °F 68% 29.74 in 10.0 mi SSE 11.5 mph 18.4 mph N/A   Mostly Cloudy
5:15 PM 62.6 °F 55.4 °F 77% 29.76 in 10.0 mi SSW 4.6 mph - N/A   Overcast
5:20 PM 62.6 °F 55.4 °F 77% 29.76 in 10.0 mi NW 4.6 mph - N/A   Overcast
5:55 PM 59.0 °F 55.4 °F 88% 29.77 in 10.0 mi NW 13.8 mph - N/A   Overcast
6:00 PM 59.0 °F 55.4 °F 88% 29.77 in 10.0 mi NW 12.7 mph - N/A   Overcast
6:15 PM 57.2 °F 55.4 °F 94% 29.77 in 10.0 mi NW 12.7 mph - N/A   Overcast
6:20 PM 57.2 °F 55.4 °F 94% 29.78 in 10.0 mi NW 11.5 mph - N/A   Overcast
6:35 PM 55.4 °F 53.6 °F 94% 29.78 in 10.0 mi NW 15.0 mph - N/A   Overcast
6:55 PM 55.4 °F 53.6 °F 94% 29.79 in 10.0 mi NW 13.8 mph 17.3 mph N/A   Overcast
7:00 PM 55.4 °F 53.6 °F 94% 29.79 in 10.0 mi NNW 10.4 mph 17.3 mph N/A   Overcast
7:15 PM 53.6 °F 53.6 °F 100% 29.79 in 10.0 mi NNW 12.7 mph 16.1 mph N/A   Overcast
7:35 PM 53.6 °F 53.6 °F 100% 29.80 in 10.0 mi NNW 10.4 mph - N/A   Overcast
7:40 PM 53.6 °F 53.6 °F 100% 29.80 in 10.0 mi NNW 11.5 mph - N/A   Overcast
7:55 PM 51.8 °F 51.8 °F 100% 29.81 in 10.0 mi NNW 11.5 mph - N/A   Overcast
8:00 PM 51.8 °F 51.8 °F 100% 29.81 in 10.0 mi NNW 10.4 mph - N/A   Overcast
8:15 PM 50.0 °F 50.0 °F 100% 29.82 in 10.0 mi NNW 10.4 mph - N/A Rain Light Rain
8:35 PM 50.0 °F 50.0 °F 100% 29.83 in 10.0 mi North 8.1 mph - N/A   Overcast
8:40 PM 50.0 °F 50.0 °F 100% 29.83 in 10.0 mi North 9.2 mph - N/A   Overcast
8:55 PM 50.0 °F 50.0 °F 100% 29.83 in 10.0 mi North 8.1 mph - N/A   Overcast
9:00 PM 50.0 °F 50.0 °F 100% 29.83 in 10.0 mi North 8.1 mph - N/A   Overcast
9:15 PM 50.0 °F 50.0 °F 100% 29.84 in 10.0 mi North 6.9 mph - N/A   Overcast
9:20 PM 50.0 °F 50.0 °F 100% 29.84 in 10.0 mi North 6.9 mph - N/A   Overcast
9:35 PM 50.0 °F 50.0 °F 100% 29.84 in 10.0 mi North 6.9 mph - N/A   Overcast
9:40 PM 50.0 °F 50.0 °F 100% 29.84 in 10.0 mi NE 3.5 mph - N/A   Overcast
9:55 PM 50.0 °F 50.0 °F 100% 29.84 in 10.0 mi North 8.1 mph - N/A   Overcast
10:00 PM 50.0 °F 50.0 °F 100% 29.84 in 10.0 mi NNE 6.9 mph - N/A   Overcast
10:15 PM 50.0 °F 50.0 °F 100% 29.85 in 10.0 mi NNE 4.6 mph - N/A   Overcast
10:35 PM 50.0 °F 50.0 °F 100% 29.86 in 10.0 mi NNE 5.8 mph - N/A   Overcast
10:40 PM 50.0 °F 50.0 °F 100% 29.86 in 10.0 mi North 3.5 mph - N/A   Overcast
10:55 PM 50.0 °F 50.0 °F 100% 29.86 in 10.0 mi NE 5.8 mph - N/A   Overcast
11:00 PM 50.0 °F 50.0 °F 100% 29.86 in 10.0 mi NNE 5.8 mph - N/A   Overcast
11:15 PM 50.0 °F 50.0 °F 100% 29.86 in 6.0 mi North 4.6 mph - N/A Rain Light Rain
11:35 PM 50.0 °F 50.0 °F 100% 29.86 in 5.0 mi NNW 4.6 mph - N/A   Overcast
11:40 PM 50.0 °F 50.0 °F 100% 29.86 in 2.5 mi NNW 4.6 mph - N/A Rain Light Rain
11:55 PM 50.0 °F 50.0 °F 100% 29.86 in 2.0 mi North 4.6 mph - N/A Rain Light Rain